Location: Hartman Creek State Park
(44.3257°N, 89.2134°W)
Time: 11:23:44
(UTC-05:00)

Cosmos 2263 Rocket - Visible Passes

Search period start: 28 May 2017 00:00
Search period end: 07 June 2017 00:00
Orbit: 825 x 847 km, 71.0° (Epoch: 27 May)

Date Brightness Start Highest point End Pass type
(mag) Time Alt. Az. Time Alt. Az. Time Alt. Az.
28 May 3.4 04:23:11 10° S 04:28:17 38° ESE 04:33:23 10° NE visible
29 May 3.5 04:06:36 10° S 04:11:36 35° ESE 04:16:36 10° NE visible
30 May 3.6 03:50:02 10° SSE 03:54:55 32° ESE 03:59:49 10° NE visible
31 May 3.7 03:33:29 10° SSE 03:38:14 30° ESE 03:43:01 10° NE visible
01 Jun 3.8 03:16:57 10° SSE 03:21:34 28° ESE 03:26:12 10° NE visible
02 Jun 3.8 03:00:33 11° SSE 03:04:54 25° ESE 03:09:23 10° NE visible
03 Jun 3.9 02:44:27 12° SSE 02:48:14 23° ESE 02:52:32 10° NE visible
03 Jun 2.5 04:26:19 10° SW 04:31:45 53° WNW 04:37:13 10° NNE visible
04 Jun 4.0 02:28:18 13° SE 02:31:33 22° E 02:35:41 10° NE visible
04 Jun 2.4 04:10:01 12° SW 04:15:01 58° WNW 04:20:32 10° NNE visible
05 Jun 4.0 02:12:07 14° SE 02:14:55 20° E 02:18:48 10° NE visible
05 Jun 2.3 03:53:49 16° SW 03:58:17 62° WNW 04:03:50 10° NNE visible
06 Jun 4.1 01:55:53 14° SE 01:58:15 18° E 02:01:55 10° ENE visible
06 Jun 2.3 03:37:34 19° SW 03:41:34 67° WNW 03:47:08 10° NNE visible
